Other Public Products
Issued by NWS Grand Forks, ND

Home | Current Version | Previous Version | Text Only | Print | Product List | Glossary Off
Versions: 1 2 3 4 5 6 7 8 9 10 11 12 13 14 15 16 17 18 19 20 21 22 23 24 25 26 27 28 29 30 31 32 33 34 35 36 37 38 39 40 41 42 43 44 45 46 47 48 49 50

000
FPUS83 KFGF 270031
OPUFGF
PRAIRIE TO PINES WEATHER ROUNDUP
NATIONAL WEATHER SERVICE EASTERN NORTH DAKOTA/GRAND FORKS ND
700 PM CDT TUE MAY 26 2015

 **SATELLITE DATA USED TO AUGMENT SKY COVER AT AUTOMATED STATIONS**
 *****  WEATHER ACROSS EASTERN NORTH DAKOTA  *****

CITY           SKY/WX    TMP DP  RH WIND       PRES   REMARKS
GRAND FORKS    PTSUNNY   81  49  32 NW5       29.71F
6HR MIN TEMP:  76; 6HR MAX TEMP:  85;

GRAND FORKS AF PTSUNNY   77  55  46 W6        29.73F
GRAND CITY NWS   N/A     75 N/A N/A NW7         N/A
BUXTON           N/A     77  47  34 E8          N/A
DEVILS LAKE    MOSUNNY   79  45  29 W12       29.78R
6HR MIN TEMP:  75; 6HR MAX TEMP:  81;

FARGO          CLOUDY    77  56  48 SW12      29.75F
6HR MIN TEMP:  72; 6HR MAX TEMP:  77;

WAHPETON ARPT  CLOUDY    72  52  49 S3        29.78S
$$

 *****  WEATHER ACROSS CENTRAL AND WESTERN NORTH DAKOTA  *****

CITY           SKY/WX    TMP DP  RH WIND       PRES   REMARKS
JAMESTOWN      PTSUNNY   73  48  41 SW6       29.78F
6HR MIN TEMP:  72; 6HR MAX TEMP:  81; 6HR PCP: TRACE;

BISMARCK       PTSUNNY   75  50  41 SE9       29.87R
6HR MIN TEMP:  72; 6HR MAX TEMP:  83; 6HR PCP: TRACE;

MINOT          PTSUNNY   69  51  52 E8        29.86R
6HR MIN TEMP:  69; 6HR MAX TEMP:  82; 6HR PCP:  0.01;

MINOT AFB      PTSUNNY   64  57  77 E5        29.88R
6HR MIN TEMP:  71; 6HR MAX TEMP:  86; 6HR PCP:  0.01;

GARRISON         N/A     76  44  32 E8        29.86F
6HR MIN TEMP:  68; 6HR MAX TEMP:  82;

WILLISTON      SUNNY     80  40  23 VRB3      29.86S
6HR MIN TEMP:  76; 6HR MAX TEMP:  82;

DICKINSON      PTSUNNY   75  42  30 SW10      29.88F
6HR MIN TEMP:  71; 6HR MAX TEMP:  77;

HETTINGER      SUNNY     72  48  42 SE6       29.92F
6HR MIN TEMP:  69; 6HR MAX TEMP:  74;

$$

 *****  OTHER OBSERVATIONS NORTHEAST NORTH DAKOTA  *****

CITY           SKY/WX    TMP DP  RH WIND       PRES   REMARKS
WALHALLA         N/A     81  39  22 MISG      29.74S
LANGDON        MOCLDY    81  43  26 VRB5      29.78S
CAVALIER       FAIR      82  39  21 NW12      29.73S
GRAFTON        FAIR      81  50  34 NW3       29.73S
CANDO          FAIR      81  37  21 NW15      29.79S
FORT TOTTEN      N/A     80  43  26 W6        29.95S
ROLLA          FAIR      77  36  22 NW15      29.82S
RUGBY          NOT AVBL
 ***** THE ABOVE OBSERVATIONS ARE NON NWS ARE NOT QUALITY
        CONTROLLED AND MAY MIS-REPORT RAIN FOR SNOW...
$$

 *****  OTHER OBSERVATIONS SOUTHEAST NORTH DAKOTA *****

CITY           SKY/WX    TMP DP  RH WIND       PRES   REMARKS
COOPERSTOWN    NOT AVBL
VALLEY CITY    FAIR      75  50  41 S5        29.78S
OAKES            N/A     68  59  73 NE5       29.81R
GWINNER        NOT AVBL
SHEYENNE NWR     N/A     62  55  77 S8        29.95S
BUFFALO        NOT AVBL
WYNDMERE         N/A     73  52  46 W9          N/A
 ***** THE ABOVE OBSERVATIONS ARE NON NWS ARE NOT QUALITY
       CONTROLLED AND MAY MIS-REPORT RAIN FOR SNOW...
$$

  *****  WEATHER ACROSS NORTHERN MINNESOTA  *****

CITY           SKY/WX    TMP DP  RH WIND       PRES   REMARKS
FLAG ISLAND    LGT RAIN  66  55  68 SE3       29.71F
WARROAD          N/A     79  52  38 W5        29.73S HAZE
ROSEAU         MOSUNNY   77  50  38 SW6         N/A
HALLOCK        PTSUNNY   81  46  30 E5        29.71S
THF RVR FALLS  PTSUNNY   79  48  34 SW6       29.74F
6HR MIN TEMP:  75; 6HR MAX TEMP:  81;

HALSTAD          N/A     73  46  38 SW12        N/A
FOSSTON        PTSUNNY   73  52  46 S9        29.77F
BAUDETTE       PTSUNNY   76  52  43 SW8       29.73F
6HR MIN TEMP:  74; 6HR MAX TEMP:  80;

WASKISH        PTSUNNY   73  55  53 CALM      29.75F
CROOKSTON      MOSUNNY   77  57  50 S10       29.73F
$$
  *****  WEATHER ACROSS CENTRAL AND WEST MINNESOTA  *****

CITY           SKY/WX    TMP DP  RH WIND       PRES   REMARKS
BEMIDJI        CLOUDY    71  52  50 S6        29.77S
PARK RAPIDS    CLOUDY    73  49  42 CALM      29.78S
6HR MIN TEMP:  71; 6HR MAX TEMP:  75;

WADENA         CLOUDY    70  54  56 CALM      29.79S
DETROIT LAKES  CLOUDY    72  52  49 W3        29.80S
MOORHEAD       CLOUDY    73  55  53 S8        29.77S
FERGUS FALLS   CLOUDY    72  55  56 W7        29.79R
ELBOW LAKE     FAIR      70  53  53 CALM      29.79S
6HR MIN TEMP:  69; 6HR MAX TEMP:  71;

MORRIS MN      CLOUDY    72  55  56 CALM      29.79S
STAPLES        CLOUDY    66  54  63 S3        29.79S
WHEATON        CLOUDY    68  55  64 SE3       29.81S
$$
  *****  WEATHER ELSEWHERE ACROSS MINNESOTA  *****

CITY           SKY/WX    TMP DP  RH WIND       PRES   REMARKS
DULUTH         CLOUDY    59  51  75 NE7       29.79F
6HR MIN TEMP:  58; 6HR MAX TEMP:  64;

INTRNTL FALLS  PTSUNNY   75  50  41 SW3       29.74F
6HR MIN TEMP:  71; 6HR MAX TEMP:  77;

ELY            NOT AVBL
CLOQUET        CLOUDY    61  50  67 N5        29.79S
BRAINERD       CLOUDY    66  53  63 CALM      29.79F
6HR MIN TEMP:  66; 6HR MAX TEMP:  68;

HIBBING        CLOUDY    66  50  56 S3        29.78F
6HR MIN TEMP:  66; 6HR MAX TEMP:  71;

ALEXANDRIA     CLOUDY    67  51  56 SE5       29.81F
6HR MIN TEMP:  67; 6HR MAX TEMP:  70;

SAINT CLOUD    CLOUDY    61  55  81 NW3       29.78F
6HR MIN TEMP:  59; 6HR MAX TEMP:  61; 6HR PCP: TRACE;

MINNEAPOLIS    LGT RAIN  59  57  93 N7        29.76S
6HR MIN TEMP:  57; 6HR MAX TEMP:  59; 6HR PCP:  0.44;

$$

  *****  WEATHER ACROSS SOUTH DAKOTA  *****

CITY           SKY/WX    TMP DP  RH WIND       PRES   REMARKS
SIOUX FALLS    CLOUDY    67  53  61 N10       29.83S
6HR MIN TEMP:  61; 6HR MAX TEMP:  69; 6HR PCP: TRACE;

BROOKINGS      CLOUDY    66  54  63 N5        29.84S
WATERTOWN      CLOUDY    70  52  52 CALM      29.83S
6HR MIN TEMP:  66; 6HR MAX TEMP:  70;

HURON          PTSUNNY   76  51  41 CALM      29.82S
6HR MIN TEMP:  73; 6HR MAX TEMP:  78;

SISSETON         N/A     74  54  49 W5        29.78F
ABERDEEN       CLOUDY    67  54  63 W10       29.82F
6HR MIN TEMP:  66; 6HR MAX TEMP:  79; 6HR PCP: TRACE;

MITCHELL       MOSUNNY   77  47  34 NE9       29.84S
PIERRE         SUNNY     76  48  37 NW12      29.86S
6HR MIN TEMP:  72; 6HR MAX TEMP:  78;

MOBRIDGE       SUNNY     79  47  32 NW12      29.84S
RAPID CITY     MOSUNNY   69  47  45 S9        29.95S
6HR MIN TEMP:  66; 6HR MAX TEMP:  70;

$$

  *****  SOME WEATHER IN NEARBY STATES *****

CITY           SKY/WX    TMP DP  RH WIND       PRES   REMARKS
GLASGOW MT     MOSUNNY   76  38  25 SE7       29.85F
6HR MIN TEMP:  71; 6HR MAX TEMP:  78;

GREAT FALLS MT MOSUNNY   66  48  52 N10       29.95F
6HR MIN TEMP:  57; 6HR MAX TEMP:  66;

CHEYENNE WY    PTSUNNY   60  41  49 S12       30.05S
6HR MIN TEMP:  50; 6HR MAX TEMP:  64; 6HR PCP:  0.29;

SCOTTSBLUFF NE PTSUNNY   69  49  48 SE13      29.97S
6HR MIN TEMP:  64; 6HR MAX TEMP:  70;

OMAHA NE       PTSUNNY   68  57  68 W10       29.85F
6HR MIN TEMP:  65; 6HR MAX TEMP:  69; 6HR PCP:  0.22;

DES MOINES IA  CLOUDY    69  61  75 W13       29.79S
6HR MIN TEMP:  65; 6HR MAX TEMP:  71; 6HR PCP:  0.11;

DAVENPORT IA   MOSUNNY   73  60  63 W15       29.78F
6HR MIN TEMP:  70; 6HR MAX TEMP:  76;

CHICAGO IL     LGT RAIN  69  64  84 SW14      29.78R
6HR MIN TEMP:  68; 6HR MAX TEMP:  74; 6HR PCP:  0.29;

EAU CLAIRE WI  RAIN      61  59  93 N10       29.70R FOG
6HR MIN TEMP:  61; 6HR MAX TEMP:  65; 6HR PCP:  0.51;

LA CROSSE WI   LGT RAIN  63  59  87 W13       29.70R
6HR MIN TEMP:  63; 6HR MAX TEMP:  70; 6HR PCP:  0.65;

$$

  *****  SOME NATIONAL WEATHER *****

CITY           SKY/WX    TMP DP  RH WIND       PRES   REMARKS


USA.gov is the U.S. government's official web portal to all federal, state and local government web resources and services.